DW7816 Weather Reports


Display with metric or nautical units.
time (UTC)temp
F
wind
direction
speed
MPH
gust
MPH
rain 1hr
in
rain 24hr
in
rain mn
in
humidity
%
barometer
mb
20260904180123 95 295 1.0 5.0 0.00 0.00 0.00 54 1013.8
20260904173926 94 246 3.0 8.0 0.00 0.00 0.00 56 1014.1
20260904172922 94 349 2.0 4.0 0.00 0.00 0.00 56 1014.2
20260904171936 94 215 2.0 7.0 0.00 0.00 0.00 57 1014.4
20260904171000 93 159 1.0 7.0 0.00 0.00 0.00 57 1014.6
20260904165938 93 317 1.0 7.0 0.00 0.00 0.00 57 1014.7
20260904164903 93 299 2.0 6.0 0.00 0.00 0.00 58 1014.7
20260904163911 93 234 1.0 6.0 0.00 0.00 0.00 60 1014.7
20260904162921 92 307 1.0 3.0 0.00 0.00 0.00 62 1014.7
20260904161852 91 271 1.0 5.0 0.00 0.00 0.00 63 1014.8
20260904160856 91 327 1.0 3.0 0.00 0.00 0.00 62 1014.8
20260904155903 91 346 0.0 3.0 0.00 0.00 0.00 63 1014.8
20260904154919 90 161 1.0 4.0 0.00 0.00 0.00 64 1014.8
20260904153856 90 355 0.0 0.0 0.00 0.00 0.00 67 1015.0
20260904152831 89 273 0.0 3.0 0.00 0.00 0.00 66 1015.0
20260904151816 89 257 0.0 4.0 0.00 0.00 0.00 67 1015.0
20260904150814 88 223 0.0 3.0 0.00 0.00 0.00 69 1014.9
20260904145802 87 265 0.0 0.0 0.00 0.00 0.00 73 1014.9
20260904144759 87 263 0.0 3.0 0.00 0.00 0.00 72 1014.8
20260904143726 86 288 0.0 0.0 0.00 0.00 0.00 73 1014.9
20260904142704 86 319 0.0 2.0 0.00 0.00 0.00 74 1014.8
20260904141637 85 279 0.0 0.0 0.00 0.00 0.00 76 1014.9
20260904140622 84 267 0.0 0.0 0.00 0.00 0.00 77 1014.9
20260904135633 83 290 0.0 0.0 0.00 0.00 0.00 78 1014.8
20260904133521 80 209 0.0 0.0 0.00 0.00 0.00 88 1014.9
20260904132539 78 209 0.0 0.0 0.00 0.00 0.00 90 1014.9
20260904131536 76 209 0.0 0.0 0.00 0.00 0.00 94 1014.8
20260904130517 74 209 0.0 0.0 0.00 0.00 0.00 96 1014.7
20260904125537 72 209 0.0 0.0 0.00 0.00 0.00 98 1014.7
20260904124507 70 209 0.0 0.0 0.00 0.00 0.00 99 1014.7
20260904122345 68 209 0.0 0.0 0.00 0.00 0.00 98 1014.6
20260904121320 68 209 0.0 0.0 0.00 0.00 0.00 98 1014.4
20260904120324 68 209 0.0 0.0 0.00 0.00 0.00 98 1014.3
20260904115256 68 209 0.0 0.0 0.00 0.00 0.00 98 1014.2
20260904114226 68 209 0.0 0.0 0.00 0.00 0.00 97 1014.2
20260904113203 68 209 0.0 0.0 0.00 0.00 0.00 97 1014.2
20260904111111 69 209 0.0 0.0 0.00 0.00 0.00 97 1014.1
20260904110037 69 209 0.0 0.0 0.00 0.00 0.00 97 1014.0
20260904105057 69 209 0.0 0.0 0.00 0.00 0.00 97 1014.0
20260904104032 69 209 0.0 0.0 0.00 0.00 0.00 96 1014.0
20260904101846 69 209 0.0 0.0 0.00 0.00 0.00 96 1013.8
20260904100849 69 209 0.0 0.0 0.00 0.00 0.00 96 1013.7
20260904095817 70 209 0.0 0.0 0.00 0.00 0.00 95 1013.6
20260904094749 70 209 0.0 0.0 0.00 0.00 0.00 95 1013.4
20260904093759 70 209 0.0 0.0 0.00 0.00 0.00 95 1013.4
20260904091711 70 209 0.0 0.0 0.00 0.00 0.00 94 1013.3
20260904090647 71 209 0.0 0.0 0.00 0.00 0.00 94 1013.2
20260904085647 71 209 0.0 0.0 0.00 0.00 0.00 94 1013.1
20260904084636 71 209 0.0 0.0 0.00 0.00 0.00 93 1013.0
20260904083605 71 209 0.0 0.0 0.00 0.00 0.00 93 1013.0
20260904081454 72 209 0.0 0.0 0.00 0.00 0.00 92 1012.8
20260904080449 72 209 0.0 0.0 0.00 0.00 0.00 92 1012.8
20260904075421 72 209 0.0 0.0 0.00 0.00 0.00 92 1012.8
20260904073320 72 209 0.0 0.0 0.00 0.00 0.00 92 1012.8
20260904072320 72 209 0.0 0.0 0.00 0.00 0.00 92 1012.8
20260904071248 72 209 0.0 0.0 0.00 0.00 0.00 92 1012.9
20260904070228 72 209 0.0 0.0 0.00 0.00 0.00 92 1012.9
20260904065239 72 209 0.0 0.0 0.00 0.00 0.00 92 1012.9
20260904064302 72 209 0.0 0.0 0.00 0.00 0.00 92 1013.0
20260904063252 72 209 0.0 0.0 0.00 0.00 0.00 92 1013.0
20260904062300 72 209 0.0 0.0 0.00 0.00 0.00 91 1013.1
20260904061306 72 209 0.0 0.0 0.00 0.00 0.00 91 1013.1
20260904060258 72 209 0.0 0.0 0.00 0.00 0.00 91 1013.1
20260904055226 73 209 0.0 0.0 0.00 0.00 0.00 90 1013.1
20260904054215 73 209 0.0 0.0 0.00 0.00 0.00 91 1013.1
20260904053225 73 209 0.0 0.0 0.00 0.00 0.00 90 1013.1
20260904052245 73 209 0.0 0.0 0.00 0.00 0.00 90 1013.0
20260904051234 73 209 0.0 0.0 0.00 0.00 0.00 90 1012.9
20260904050217 73 209 0.0 0.0 0.00 0.00 0.00 90 1012.9
20260904045208 73 209 0.0 0.0 0.00 0.00 0.00 90 1012.9
20260904044204 73 209 0.0 0.0 0.00 0.00 0.00 89 1012.8
20260904043149 73 209 0.0 0.0 0.00 0.00 0.00 89 1012.9
20260904041016 74 209 0.0 0.0 0.00 0.00 0.00 88 1012.9
20260904035942 74 209 0.0 0.0 0.00 0.00 0.00 88 1012.8
20260904033825 75 209 0.0 0.0 0.00 0.00 0.00 87 1012.9
20260904032812 75 209 0.0 0.0 0.00 0.00 0.00 85 1012.8
20260904031744 76 209 0.0 0.0 0.00 0.00 0.00 85 1013.0
20260904030744 76 209 0.0 0.0 0.00 0.00 0.00 83 1012.8
20260904025723 77 209 0.0 0.0 0.00 0.00 0.00 81 1012.8
20260904024710 77 209 0.0 0.0 0.00 0.00 0.00 80 1012.7
20260904023732 78 209 0.0 0.0 0.00 0.00 0.00 79 1012.6
20260904022734 78 209 0.0 0.0 0.00 0.00 0.00 78 1012.5
20260904021700 79 209 0.0 0.0 0.00 0.00 0.00 77 1012.3
20260904020630 79 209 0.0 0.0 0.00 0.00 0.00 77 1012.2
20260904015558 80 209 0.0 0.0 0.00 0.00 0.00 76 1012.0
20260904014616 80 209 0.0 0.0 0.00 0.00 0.00 75 1011.8
20260904013545 81 206 0.0 0.0 0.00 0.00 0.00 74 1011.8
20260904012522 81 175 0.0 0.0 0.00 0.00 0.00 73 1011.7
20260904011519 82 216 0.0 3.0 0.00 0.00 0.00 72 1011.5
20260904010454 83 227 0.0 0.0 0.00 0.00 0.00 70 1011.3
20260904003205 88 227 0.0 0.0 0.00 0.00 0.00 60 1011.2
20260904002209 89 247 0.0 0.0 0.00 0.00 0.00 59 1011.2
20260904001202 89 192 0.0 0.0 0.00 0.00 0.00 58 1011.1
20260904000206 90 251 0.0 4.0 0.00 0.00 0.00 56 1011.0
20260903234051 92 250 0.0 2.0 0.00 0.00 0.00 53 1011.0
20260903233020 93 202 1.0 6.0 0.00 0.00 0.00 52 1011.0
20260903232026 94 205 1.0 9.0 0.00 0.00 0.00 49 1011.0
20260903231022 95 223 2.0 11.0 0.00 0.00 0.00 50 1011.0
20260903230045 95 253 2.0 11.0 0.00 0.00 0.00 48 1011.0
20260903225036 96 266 1.0 6.0 0.00 0.00 0.00 49 1010.9
20260903224058 96 55 1.0 7.0 0.00 0.00 0.00 48 1010.9
20260903223026 96 150 1.0 6.0 0.00 0.00 0.00 46 1010.9
20260903222015 96 202 3.0 8.0 0.00 0.00 0.00 48 1010.9
20260903221038 96 178 2.0 9.0 0.00 0.00 0.00 46 1010.9
20260903220017 96 301 2.0 9.0 0.00 0.00 0.00 47 1010.8
20260903215042 97 196 2.0 8.0 0.00 0.00 0.00 46 1010.8
20260903214010 97 286 2.0 11.0 0.00 0.00 0.00 46 1011.0
20260903213012 97 214 1.0 6.0 0.00 0.00 0.00 47 1011.1
20260903211959 96 173 2.0 8.0 0.00 0.00 0.00 45 1011.1
20260903210954 96 346 3.0 7.0 0.00 0.00 0.00 46 1011.2
20260903210018 96 279 2.0 7.0 0.00 0.00 0.00 48 1011.2
20260903205010 96 328 3.0 10.0 0.00 0.00 0.00 46 1011.4
20260903204020 96 286 1.0 13.0 0.00 0.00 0.00 50 1011.3
20260903203027 96 192 3.0 13.0 0.00 0.00 0.00 50 1011.4
20260903202007 96 141 1.0 7.0 0.00 0.00 0.00 51 1011.5
20260903194817 96 259 3.0 8.0 0.00 0.00 0.00 54 1011.9
20260903193810 96 175 2.0 9.0 0.00 0.00 0.00 52 1011.8
20260903192751 96 214 1.0 7.0 0.00 0.00 0.00 56 1012.0
20260903191720 96 225 2.0 9.0 0.00 0.00 0.00 53 1012.1
20260903190649 96 303 2.0 7.0 0.00 0.00 0.00 54 1012.3
20260903184525 95 320 1.0 7.0 0.00 0.00 0.00 52 1012.6
20260903183529 95 137 1.0 7.0 0.00 0.00 0.00 55 1012.9
20260903182517 94 292 3.0 7.0 0.00 0.00 0.00 53 1012.9